Beaver Island, MI

6:56 PM EDT on June 27, 2017 (GMT -0400)
Beaver Island

Weather History for KSJX - November, 2012

Change the Weather History Date:

Tuesday, November 13, 2012

  Actual Average Record
Temperature  
Mean Temperature 35 °F -  
Max Temperature 39 °F 39 °F 57 °F (2001)
Min Temperature 31 °F 29 °F 13 °F (1986)
Degree Days  
Heating Degree Days 30    
Moisture  
Dew Point 25 °F    
Average Humidity 68    
Maximum Humidity 78    
Minimum Humidity 61    
Precipitation  
Precipitation 0.00 in - - ()
Sea Level Pressure  
Sea Level Pressure 30.32 in    
Wind  
Wind Speed 14 mph (WSW)    
Max Wind Speed 23 mph    
Max Gust Speed 30 mph    
Visibility 10 miles    
Events      
Averages and records for this station are not official NWS values.
T = Trace of Precipitation, MM = Missing Value Source: NWS Daily Summary

Daily Weather History Graph

Daily Weather History Graph

Search for Another Location

Airport or City:

Trip Planner

Search our weather history database for the weather conditions in past years. The results will help you decide how hot, cold, wet, or windy it might be!

Date:

Astronomy

Nov. 13, 2012 Rise Set
Actual Time 7:39 AM EST 5:12 PM EST
Civil Twilight 7:07 AM EST 5:45 PM EST
Nautical Twilight 6:31 AM EST 6:21 PM EST
Astronomical Twilight 5:56 AM EST 6:56 PM EST
Moon 7:17 AM EST (11/13) 5:03 PM EST (11/13)
Length of Visible Light 10h 37m
Length of Day
9h 33m
Waning Crescent, 0% of the Moon is Illuminated
Nov 13
Waning Crescent
Nov 13
New
Nov 20
First Quarter
Nov 28
Full
Dec 6
Last Quarter

Hourly Weather History & Observations

Time (EST) Temp. Windchill Dew Point Humidity Pressure Visibility Wind Dir Wind Speed Gust Speed Precip Events Conditions
12:17 AM 31.1 °F 18.9 °F 19.0 °F 61% 30.10 in 10.0 mi West 19.6 mph 28.8 mph N/A   Mostly Cloudy
12:36 AM 31.8 °F 19.0 °F 19.9 °F 62% 30.11 in 10.0 mi West 23.0 mph 28.8 mph N/A   Mostly Cloudy
12:56 AM 31.5 °F 19.8 °F 20.3 °F 63% 30.12 in 10.0 mi West 18.4 mph 27.6 mph N/A   Mostly Cloudy
1:17 AM 31.8 °F 20.2 °F 19.9 °F 62% 30.12 in 10.0 mi West 18.4 mph 27.6 mph N/A   Scattered Clouds
1:36 AM 31.8 °F 19.6 °F 20.8 °F 64% 30.13 in 10.0 mi West 20.7 mph 27.6 mph N/A   Scattered Clouds
1:56 AM 31.8 °F 20.6 °F 21.0 °F 64% 30.13 in 10.0 mi West 17.3 mph 29.9 mph N/A   Mostly Cloudy
2:17 AM 31.8 °F 20.2 °F 21.0 °F 64% 30.14 in 10.0 mi West 18.4 mph 25.3 mph N/A   Mostly Cloudy
2:36 AM 31.6 °F 22.1 °F 21.7 °F 67% 30.15 in 10.0 mi West 12.7 mph 23.0 mph N/A   Scattered Clouds
2:56 AM 31.8 °F 20.2 °F 22.3 °F 68% 30.16 in 10.0 mi West 18.4 mph 25.3 mph N/A   Mostly Cloudy
3:17 AM 31.8 °F 21.4 °F 22.5 °F 68% 30.17 in 10.0 mi West 15.0 mph 25.3 mph N/A   Mostly Cloudy
3:57 AM 31.8 °F 20.6 °F 22.8 °F 69% 30.18 in 10.0 mi West 17.3 mph 23.0 mph N/A   Mostly Cloudy
4:17 AM 32.0 °F 20.5 °F 23.4 °F 70% 30.18 in 10.0 mi West 18.4 mph 23.0 mph N/A   Overcast
4:36 AM 31.8 °F 20.6 °F 23.9 °F 73% 30.18 in 10.0 mi West 17.3 mph 25.3 mph N/A   Mostly Cloudy
4:57 AM 32.4 °F 24.0 °F 24.8 °F 74% 30.19 in 10.0 mi West 10.4 mph 25.3 mph N/A   Overcast
5:16 AM 32.4 °F 23.0 °F 24.3 °F 72% 30.20 in 10.0 mi West 12.7 mph 21.9 mph N/A   Mostly Cloudy
5:36 AM 32.2 °F 25.0 °F 24.8 °F 74% 30.21 in 10.0 mi West 8.1 mph 20.7 mph N/A   Scattered Clouds
5:56 AM 32.2 °F 22.7 °F 24.8 °F 74% 30.22 in 10.0 mi West 12.7 mph 19.6 mph N/A   Scattered Clouds
6:16 AM 32.4 °F 22.5 °F 25.2 °F 75% 30.23 in 10.0 mi West 13.8 mph 17.3 mph N/A   Scattered Clouds
6:37 AM 32.2 °F 24.4 °F 26.1 °F 78% 30.24 in 10.0 mi West 9.2 mph 19.6 mph N/A   Clear
7:17 AM 32.9 °F 24.1 °F 25.9 °F 75% 30.26 in 10.0 mi West 11.5 mph 19.6 mph N/A   Scattered Clouds
7:36 AM 32.9 °F 24.1 °F 26.2 °F 76% 30.27 in 10.0 mi West 11.5 mph 23.0 mph N/A   Scattered Clouds
7:56 AM 32.7 °F 24.5 °F 26.2 °F 77% 30.28 in 10.0 mi West 10.4 mph 18.4 mph N/A   Scattered Clouds
8:17 AM 33.1 °F 26.1 °F 26.2 °F 76% 30.29 in 10.0 mi West 8.1 mph - N/A   Scattered Clouds
8:36 AM 33.4 °F 25.9 °F 26.4 °F 75% 30.30 in 10.0 mi West 9.2 mph 16.1 mph N/A   Scattered Clouds
8:56 AM 34.0 °F 26.0 °F 26.6 °F 74% 30.31 in 10.0 mi West 10.4 mph - N/A   Scattered Clouds
9:17 AM 34.3 °F 29.2 °F 26.6 °F 73% 30.32 in 10.0 mi West 5.8 mph - N/A   Scattered Clouds
9:36 AM 34.3 °F 27.7 °F 27.5 °F 76% 30.33 in 10.0 mi WSW 8.1 mph - N/A   Mostly Cloudy
9:56 AM 34.2 °F 26.2 °F 27.1 °F 75% 30.33 in 10.0 mi West 10.4 mph 17.3 mph N/A   Overcast
10:17 AM 34.2 °F 25.2 °F 27.0 °F 75% 30.35 in 10.0 mi West 12.7 mph 18.4 mph N/A   Overcast
10:36 AM 34.7 °F 25.5 °F 26.8 °F 73% 30.36 in 10.0 mi WSW 13.8 mph 18.4 mph N/A   Overcast
10:57 AM 34.9 °F 27.1 °F 26.4 °F 71% 30.36 in 10.0 mi West 10.4 mph 16.1 mph N/A   Overcast
11:16 AM 36.5 °F 28.7 °F 27.5 °F 70% 30.37 in 10.0 mi West 11.5 mph 17.3 mph N/A   Overcast
11:36 AM 37.0 °F 30.4 °F 26.8 °F 66% 30.36 in 10.0 mi West 9.2 mph - N/A   Scattered Clouds
11:57 AM 37.8 °F 31.8 °F 27.1 °F 66% 30.36 in 10.0 mi West 8.1 mph - N/A   Scattered Clouds
12:16 PM 37.2 °F 30.0 °F 27.0 °F 66% 30.36 in 10.0 mi West 10.4 mph 17.3 mph N/A   Scattered Clouds
12:36 PM 36.9 °F 29.6 °F 26.2 °F 65% 30.36 in 10.0 mi West 10.4 mph - N/A   Scattered Clouds
12:57 PM 38.5 °F 31.1 °F 27.3 °F 64% 30.36 in 10.0 mi WSW 11.5 mph - N/A   Scattered Clouds
1:16 PM 39.0 °F 30.6 °F 27.3 °F 63% 30.36 in 10.0 mi WSW 15.0 mph - N/A   Scattered Clouds
1:56 PM 38.1 °F 30.2 °F 26.4 °F 63% 30.36 in 10.0 mi WSW 12.7 mph 19.6 mph N/A   Scattered Clouds
2:16 PM 37.4 °F 29.3 °F 25.9 °F 63% 30.36 in 10.0 mi SW 12.7 mph 18.4 mph N/A   Mostly Cloudy
2:36 PM 37.2 °F 29.6 °F 25.9 °F 64% 30.36 in 10.0 mi SW 11.5 mph 18.4 mph N/A   Mostly Cloudy
2:56 PM 37.8 °F 29.4 °F 25.5 °F 61% 30.37 in 10.0 mi SW 13.8 mph 19.6 mph N/A   Mostly Cloudy
3:16 PM 37.0 °F 31.0 °F 25.2 °F 62% 30.38 in 10.0 mi SSW 8.1 mph - N/A   Mostly Cloudy
3:36 PM 37.4 °F 29.8 °F 25.5 °F 62% 30.38 in 10.0 mi SW 11.5 mph - N/A   Mostly Cloudy
3:57 PM 37.4 °F 29.8 °F 25.3 °F 62% 30.38 in 10.0 mi SW 11.5 mph 16.1 mph N/A   Mostly Cloudy
4:16 PM 36.7 °F 31.2 °F 25.3 °F 64% 30.38 in 10.0 mi SSW 6.9 mph - N/A   Mostly Cloudy
4:36 PM 36.5 °F 28.7 °F 25.3 °F 64% 30.38 in 10.0 mi SSW 11.5 mph 16.1 mph N/A   Mostly Cloudy
4:57 PM 36.5 °F 30.3 °F 25.5 °F 64% 30.39 in 10.0 mi SSW 8.1 mph - N/A   Mostly Cloudy
5:16 PM 36.5 °F 29.7 °F 25.5 °F 64% 30.39 in 10.0 mi SSW 9.2 mph 17.3 mph N/A   Mostly Cloudy
5:37 PM 36.5 °F 29.7 °F 25.7 °F 65% 30.40 in 10.0 mi SSW 9.2 mph 16.1 mph N/A   Mostly Cloudy
5:56 PM 36.0 °F 29.6 °F 25.5 °F 66% 30.40 in 10.0 mi SSW 8.1 mph - N/A   Mostly Cloudy
6:16 PM 36.3 °F 29.5 °F 25.5 °F 65% 30.41 in 10.0 mi South 9.2 mph 16.1 mph N/A   Mostly Cloudy
6:37 PM 36.5 °F 31.0 °F 26.1 °F 66% 30.41 in 10.0 mi SSW 6.9 mph - N/A   Mostly Cloudy
6:56 PM 36.5 °F 29.2 °F 25.9 °F 65% 30.41 in 10.0 mi South 10.4 mph 16.1 mph N/A   Overcast
7:16 PM 36.7 °F 29.4 °F 26.2 °F 66% 30.41 in 10.0 mi South 10.4 mph 16.1 mph N/A   Overcast
7:36 PM 36.9 °F 31.4 °F 26.4 °F 66% 30.42 in 10.0 mi SSW 6.9 mph - N/A   Overcast
7:56 PM 36.7 °F 29.9 °F 26.1 °F 65% 30.42 in 10.0 mi SSW 9.2 mph - N/A   Overcast
8:17 PM 37.0 °F 31.0 °F 26.4 °F 65% 30.42 in 10.0 mi South 8.1 mph - N/A   Overcast
8:36 PM 36.9 °F 30.1 °F 26.4 °F 66% 30.42 in 10.0 mi SSW 9.2 mph - N/A   Overcast
8:56 PM 37.4 °F 32.1 °F 26.6 °F 65% 30.42 in 10.0 mi South 6.9 mph - N/A   Overcast
9:17 PM 37.4 °F 31.4 °F 26.6 °F 65% 30.42 in 10.0 mi South 8.1 mph - N/A   Overcast
9:36 PM 37.6 °F 32.3 °F 27.1 °F 66% 30.42 in 10.0 mi South 6.9 mph - N/A   Overcast
9:56 PM 37.8 °F 33.3 °F 27.3 °F 66% 30.42 in 10.0 mi South 5.8 mph - N/A   Overcast
10:16 PM 37.8 °F 32.5 °F 27.9 °F 67% 30.42 in 10.0 mi South 6.9 mph - N/A   Overcast
10:36 PM 37.8 °F 32.5 °F 28.4 °F 69% 30.43 in 10.0 mi SSW 6.9 mph - N/A   Overcast
10:57 PM 37.9 °F 32.7 °F 28.9 °F 70% 30.43 in 10.0 mi SSW 6.9 mph - N/A   Overcast
11:16 PM 38.5 °F 32.1 °F 29.3 °F 70% 30.43 in 10.0 mi South 9.2 mph - N/A   Overcast
11:36 PM 38.5 °F 32.7 °F 29.5 °F 70% 30.43 in 10.0 mi South 8.1 mph - N/A   Mostly Cloudy
11:57 PM 38.1 °F 33.7 °F 29.8 °F 72% 30.42 in 10.0 mi South 5.8 mph - N/A   Scattered Clouds